| time (UTC) | temp F | wind direction | speed MPH | gust MPH | rain 1hr in | rain 24hr in | rain mn in | humidity % | barometer mb |
| 20260902163321 | 65 | 175 | 5.0 | 10.0 | 0.00 | 0.00 | 0.00 | 76 | 999.7 |
| 20260902162821 | 64 | 253 | 4.0 | 7.0 | 0.00 | 0.00 | 0.00 | 77 | 999.6 |
| 20260902162314 | 64 | 200 | 4.0 | 8.0 | 0.00 | 0.00 | 0.00 | 77 | 999.8 |
| 20260902161807 | 64 | 160 | 4.0 | 8.0 | 0.00 | 0.00 | 0.00 | 77 | 999.7 |
| 20260902161301 | 64 | 159 | 4.0 | 10.0 | 0.00 | 0.00 | 0.00 | 78 | 999.7 |
| 20260902160755 | 63 | 192 | 4.0 | 10.0 | 0.00 | 0.00 | 0.00 | 78 | 999.6 |
| 20260902160249 | 63 | 155 | 4.0 | 10.0 | 0.00 | 0.00 | 0.00 | 78 | 999.6 |
| 20260902155742 | 63 | 182 | 4.0 | 8.0 | 0.00 | 0.00 | 0.00 | 78 | 999.6 |
| 20260902155238 | 63 | 197 | 4.0 | 8.0 | 0.00 | 0.00 | 0.00 | 78 | 999.5 |
| 20260902154738 | 63 | 177 | 3.0 | 7.0 | 0.00 | 0.00 | 0.00 | 79 | 999.5 |
| 20260902154239 | 62 | 177 | 4.0 | 8.0 | 0.00 | 0.00 | 0.00 | 78 | 999.6 |
| 20260902153238 | 62 | 162 | 2.0 | 6.0 | 0.00 | 0.00 | 0.00 | 79 | 999.7 |
| 20260902152740 | 62 | 182 | 2.0 | 6.0 | 0.00 | 0.00 | 0.00 | 79 | 999.7 |
| 20260902152239 | 62 | 194 | 3.0 | 5.0 | 0.00 | 0.00 | 0.00 | 79 | 999.7 |
| 20260902151738 | 62 | 201 | 2.0 | 5.0 | 0.00 | 0.00 | 0.00 | 79 | 999.8 |
| 20260902150737 | 61 | 188 | 2.0 | 5.0 | 0.00 | 0.00 | 0.00 | 80 | 999.7 |
| 20260902150236 | 61 | 205 | 3.0 | 7.0 | 0.00 | 0.00 | 0.00 | 79 | 999.6 |
| 20260902145736 | 61 | 194 | 3.0 | 8.0 | 0.00 | 0.00 | 0.00 | 79 | 999.6 |
| 20260902145236 | 61 | 180 | 2.0 | 8.0 | 0.00 | 0.00 | 0.00 | 79 | 999.4 |
| 20260902144738 | 61 | 161 | 2.0 | 5.0 | 0.00 | 0.00 | 0.00 | 79 | 999.3 |
| 20260902144237 | 60 | 153 | 1.0 | 5.0 | 0.00 | 0.00 | 0.00 | 79 | 999.1 |
| 20260902143737 | 60 | 171 | 2.0 | 6.0 | 0.00 | 0.00 | 0.00 | 79 | 998.9 |
| 20260902143230 | 60 | 148 | 3.0 | 6.0 | 0.00 | 0.00 | 0.00 | 79 | 998.9 |
| 20260902142724 | 60 | 165 | 3.0 | 7.0 | 0.00 | 0.00 | 0.00 | 80 | 998.8 |
| 20260902142219 | 60 | 146 | 3.0 | 10.0 | 0.00 | 0.00 | 0.00 | 79 | 999.0 |
| 20260902141719 | 60 | 146 | 3.0 | 10.0 | 0.00 | 0.00 | 0.00 | 80 | 999.0 |
| 20260902141207 | 60 | 157 | 2.0 | 8.0 | 0.00 | 0.00 | 0.00 | 80 | 998.9 |
| 20260902140701 | 60 | 153 | 3.0 | 6.0 | 0.00 | 0.00 | 0.00 | 80 | 998.9 |
| 20260902140155 | 60 | 185 | 3.0 | 7.0 | 0.00 | 0.00 | 0.00 | 80 | 999.1 |
| 20260902135649 | 60 | 180 | 2.0 | 6.0 | 0.00 | 0.00 | 0.00 | 80 | 999.0 |
| 20260902134130 | 60 | 198 | 2.0 | 5.0 | 0.00 | 0.00 | 0.00 | 79 | 998.9 |
| 20260902133625 | 60 | 167 | 2.0 | 6.0 | 0.00 | 0.00 | 0.00 | 79 | 998.8 |
| 20260902133122 | 60 | 155 | 2.0 | 6.0 | 0.00 | 0.00 | 0.00 | 79 | 998.8 |
| 20260902132622 | 60 | 187 | 3.0 | 10.0 | 0.00 | 0.00 | 0.00 | 79 | 998.9 |
| 20260902132121 | 60 | 197 | 3.0 | 10.0 | 0.00 | 0.00 | 0.00 | 79 | 998.7 |
| 20260902131618 | 61 | 143 | 2.0 | 8.0 | 0.00 | 0.00 | 0.00 | 80 | 998.7 |
| 20260902131118 | 61 | 194 | 2.0 | 5.0 | 0.00 | 0.00 | 0.00 | 80 | 998.8 |
| 20260902130618 | 61 | 184 | 2.0 | 7.0 | 0.00 | 0.00 | 0.00 | 80 | 998.8 |
| 20260902130118 | 61 | 161 | 2.0 | 7.0 | 0.00 | 0.00 | 0.00 | 80 | 998.7 |
| 20260902125618 | 61 | 191 | 2.0 | 6.0 | 0.00 | 0.00 | 0.00 | 80 | 998.7 |
| 20260902125118 | 61 | 196 | 3.0 | 8.0 | 0.00 | 0.00 | 0.00 | 80 | 998.7 |
| 20260902124619 | 61 | 178 | 2.0 | 8.0 | 0.00 | 0.00 | 0.00 | 80 | 998.7 |
| 20260902124119 | 61 | 166 | 3.0 | 7.0 | 0.00 | 0.00 | 0.00 | 80 | 998.7 |
| 20260902123618 | 61 | 172 | 3.0 | 7.0 | 0.00 | 0.00 | 0.00 | 80 | 998.6 |
| 20260902123118 | 61 | 182 | 2.0 | 6.0 | 0.00 | 0.00 | 0.00 | 81 | 998.7 |
| 20260902122619 | 61 | 153 | 2.0 | 5.0 | 0.00 | 0.00 | 0.00 | 81 | 998.7 |
| 20260902122116 | 61 | 161 | 2.0 | 5.0 | 0.00 | 0.00 | 0.00 | 81 | 998.6 |
| 20260902121616 | 61 | 197 | 2.0 | 5.0 | 0.00 | 0.00 | 0.00 | 82 | 998.6 |
| 20260902121116 | 61 | 171 | 2.0 | 5.0 | 0.00 | 0.00 | 0.00 | 82 | 998.7 |
| 20260902120617 | 61 | 183 | 3.0 | 7.0 | 0.00 | 0.00 | 0.00 | 82 | 998.7 |
| 20260902120111 | 61 | 180 | 3.0 | 7.0 | 0.00 | 0.00 | 0.00 | 82 | 998.7 |
| 20260902115605 | 61 | 181 | 3.0 | 6.0 | 0.00 | 0.00 | 0.00 | 83 | 998.7 |
| 20260902115059 | 60 | 198 | 2.0 | 6.0 | 0.00 | 0.00 | 0.00 | 84 | 998.7 |
| 20260902114553 | 60 | 175 | 0.0 | 4.0 | 0.00 | 0.00 | 0.00 | 84 | 998.6 |
| 20260902113540 | 60 | 204 | 2.0 | 5.0 | 0.00 | 0.00 | 0.00 | 84 | 998.6 |
| 20260902113034 | 60 | 209 | 2.0 | 5.0 | 0.00 | 0.00 | 0.00 | 85 | 998.6 |
| 20260902112529 | 60 | 159 | 2.0 | 6.0 | 0.00 | 0.00 | 0.00 | 85 | 998.5 |
| 20260902112023 | 60 | 165 | 2.0 | 6.0 | 0.00 | 0.00 | 0.00 | 85 | 998.5 |
| 20260902111010 | 60 | 160 | 1.0 | 4.0 | 0.00 | 0.00 | 0.00 | 85 | 998.5 |
| 20260902110505 | 60 | 160 | 0.0 | 4.0 | 0.00 | 0.00 | 0.00 | 85 | 998.6 |
| 20260902105959 | 60 | 158 | 0.0 | 1.0 | 0.00 | 0.00 | 0.00 | 85 | 998.7 |
| 20260902105453 | 60 | 158 | 0.0 | 2.0 | 0.00 | 0.00 | 0.00 | 85 | 998.7 |
| 20260902104947 | 60 | 159 | 0.0 | 2.0 | 0.00 | 0.00 | 0.00 | 85 | 998.8 |
| 20260902104441 | 60 | 159 | 0.0 | 1.0 | 0.00 | 0.00 | 0.00 | 85 | 998.8 |
| 20260902103934 | 60 | 159 | 0.0 | 3.0 | 0.00 | 0.00 | 0.00 | 85 | 998.9 |
| 20260902103429 | 60 | 167 | 1.0 | 4.0 | 0.00 | 0.00 | 0.00 | 85 | 998.9 |
| 20260902102923 | 60 | 167 | 1.0 | 4.0 | 0.00 | 0.00 | 0.00 | 86 | 998.9 |
| 20260902102417 | 60 | 163 | 1.0 | 4.0 | 0.00 | 0.00 | 0.00 | 86 | 998.9 |
| 20260902101910 | 60 | 157 | 1.0 | 4.0 | 0.00 | 0.00 | 0.00 | 86 | 998.9 |
| 20260902101404 | 60 | 163 | 1.0 | 5.0 | 0.00 | 0.00 | 0.00 | 86 | 998.9 |
| 20260902100859 | 60 | 153 | 1.0 | 5.0 | 0.00 | 0.00 | 0.00 | 86 | 998.9 |
| 20260902095847 | 60 | 153 | 1.0 | 5.0 | 0.00 | 0.00 | 0.00 | 86 | 998.9 |
| 20260902095341 | 60 | 167 | 1.0 | 4.0 | 0.00 | 0.00 | 0.00 | 86 | 998.9 |
| 20260902094840 | 60 | 190 | 1.0 | 4.0 | 0.00 | 0.00 | 0.00 | 87 | 999.0 |
| 20260902094341 | 60 | 171 | 1.0 | 4.0 | 0.00 | 0.00 | 0.00 | 87 | 999.0 |
| 20260902093841 | 60 | 158 | 0.0 | 4.0 | 0.00 | 0.00 | 0.00 | 87 | 999.1 |
| 20260902093340 | 60 | 170 | 0.0 | 0.0 | 0.00 | 0.00 | 0.00 | 87 | 999.0 |
| 20260902092838 | 60 | 171 | 0.0 | 0.0 | 0.00 | 0.00 | 0.00 | 87 | 999.0 |
| 20260902092335 | 60 | 171 | 1.0 | 5.0 | 0.00 | 0.00 | 0.00 | 87 | 999.1 |
| 20260902091834 | 60 | 171 | 2.0 | 5.0 | 0.00 | 0.00 | 0.00 | 87 | 999.1 |
| 20260902090832 | 60 | 168 | 1.0 | 4.0 | 0.00 | 0.00 | 0.00 | 86 | 999.1 |
| 20260902090331 | 60 | 194 | 0.0 | 1.0 | 0.00 | 0.00 | 0.00 | 86 | 999.2 |
| 20260902085831 | 60 | 194 | 0.0 | 1.0 | 0.00 | 0.00 | 0.00 | 86 | 999.1 |
| 20260902085328 | 60 | 194 | 0.0 | 2.0 | 0.00 | 0.00 | 0.00 | 86 | 999.2 |
| 20260902084326 | 60 | 194 | 1.0 | 2.0 | 0.00 | 0.00 | 0.00 | 86 | 999.2 |
| 20260902083825 | 60 | 195 | 0.0 | 2.0 | 0.00 | 0.00 | 0.00 | 86 | 999.3 |
| 20260902083327 | 60 | 195 | 0.0 | 3.0 | 0.00 | 0.00 | 0.00 | 86 | 999.3 |
| 20260902082823 | 60 | 196 | 1.0 | 3.0 | 0.00 | 0.00 | 0.00 | 86 | 999.3 |
| 20260902082322 | 60 | 195 | 1.0 | 3.0 | 0.00 | 0.00 | 0.00 | 86 | 999.3 |
| 20260902081823 | 60 | 200 | 0.0 | 3.0 | 0.00 | 0.00 | 0.00 | 86 | 999.2 |
| 20260902081321 | 60 | 202 | 0.0 | 3.0 | 0.00 | 0.00 | 0.00 | 86 | 999.3 |
| 20260902080823 | 60 | 202 | 0.0 | 0.0 | 0.00 | 0.00 | 0.00 | 86 | 999.4 |
| 20260902080321 | 60 | 202 | 0.0 | 1.0 | 0.00 | 0.00 | 0.00 | 87 | 999.4 |
| 20260902074823 | 61 | 216 | 0.0 | 2.0 | 0.00 | 0.00 | 0.00 | 87 | 999.3 |
| 20260902074318 | 61 | 217 | 0.0 | 3.0 | 0.00 | 0.00 | 0.00 | 87 | 999.3 |
| 20260902073817 | 61 | 217 | 1.0 | 3.0 | 0.00 | 0.00 | 0.00 | 87 | 999.3 |
| 20260902073318 | 60 | 258 | 1.0 | 2.0 | 0.00 | 0.00 | 0.00 | 87 | 999.3 |
| 20260902072819 | 60 | 213 | 1.0 | 3.0 | 0.00 | 0.00 | 0.00 | 87 | 999.2 |
| 20260902072318 | 61 | 211 | 1.0 | 3.0 | 0.00 | 0.00 | 0.00 | 88 | 999.2 |
| 20260902071819 | 61 | 231 | 1.0 | 4.0 | 0.00 | 0.00 | 0.00 | 87 | 999.2 |
| 20260902071317 | 60 | 230 | 2.0 | 4.0 | 0.00 | 0.00 | 0.00 | 87 | 999.1 |
| 20260902070818 | 60 | 242 | 1.0 | 4.0 | 0.00 | 0.00 | 0.00 | 88 | 999.2 |
| 20260902070319 | 60 | 247 | 1.0 | 4.0 | 0.00 | 0.00 | 0.00 | 88 | 999.2 |
| 20260902065815 | 60 | 223 | 0.0 | 2.0 | 0.00 | 0.00 | 0.00 | 88 | 999.2 |
| 20260902065313 | 60 | 222 | 0.0 | 2.0 | 0.00 | 0.00 | 0.00 | 88 | 999.2 |
| 20260902064815 | 60 | 222 | 1.0 | 3.0 | 0.00 | 0.00 | 0.00 | 88 | 999.1 |
| 20260902064314 | 60 | 222 | 1.0 | 3.0 | 0.00 | 0.00 | 0.00 | 88 | 999.1 |
| 20260902063313 | 60 | 242 | 1.0 | 2.0 | 0.00 | 0.00 | 0.00 | 88 | 999.2 |
| 20260902062813 | 60 | 224 | 1.0 | 2.0 | 0.00 | 0.00 | 0.00 | 88 | 999.2 |
| 20260902062314 | 60 | 219 | 1.0 | 3.0 | 0.00 | 0.00 | 0.00 | 88 | 999.1 |
| 20260902061815 | 61 | 214 | 1.0 | 5.0 | 0.00 | 0.00 | 0.00 | 88 | 999.2 |
| 20260902061311 | 60 | 169 | 1.0 | 5.0 | 0.00 | 0.00 | 0.00 | 88 | 999.1 |
| 20260902060810 | 60 | 211 | 1.0 | 3.0 | 0.00 | 0.00 | 0.00 | 88 | 999.2 |
| 20260902060307 | 60 | 248 | 0.0 | 3.0 | 0.00 | 0.00 | 0.00 | 88 | 999.3 |
| 20260902055807 | 60 | 190 | 0.0 | 2.0 | 0.00 | 0.00 | 0.00 | 88 | 999.3 |
| 20260902055307 | 60 | 190 | 0.0 | 2.0 | 0.00 | 0.00 | 0.00 | 88 | 999.3 |
| 20260902054803 | 60 | 190 | 0.0 | 2.0 | 0.00 | 0.00 | 0.00 | 88 | 999.2 |
| 20260902054302 | 60 | 190 | 1.0 | 3.0 | 0.00 | 0.00 | 0.00 | 88 | 999.3 |
| 20260902053803 | 60 | 190 | 1.0 | 3.0 | 0.00 | 0.00 | 0.00 | 88 | 999.3 |
| 20260902053302 | 60 | 190 | 1.0 | 2.0 | 0.00 | 0.00 | 0.00 | 88 | 999.4 |
| 20260902052802 | 60 | 189 | 1.0 | 5.0 | 0.00 | 0.00 | 0.00 | 88 | 999.4 |
| 20260902052306 | 60 | 190 | 2.0 | 5.0 | 0.00 | 0.00 | 0.00 | 88 | 999.3 |
| 20260902051800 | 60 | 188 | 1.0 | 4.0 | 0.00 | 0.00 | 0.00 | 88 | 999.3 |
| 20260902051301 | 60 | 188 | 2.0 | 4.0 | 0.00 | 0.00 | 0.00 | 88 | 999.4 |
| 20260902050800 | 61 | 188 | 1.0 | 4.0 | 0.00 | 0.00 | 0.00 | 88 | 999.4 |
| 20260902050300 | 61 | 189 | 1.0 | 4.0 | 0.00 | 0.00 | 0.00 | 88 | 999.4 |
| 20260902045753 | 61 | 219 | 1.0 | 4.0 | 0.00 | 0.00 | 0.00 | 88 | 999.5 |
| 20260902045246 | 61 | 211 | 1.0 | 3.0 | 0.00 | 0.00 | 0.00 | 88 | 999.5 |
| 20260902044740 | 61 | 215 | 1.0 | 3.0 | 0.00 | 0.00 | 0.00 | 88 | 999.5 |
| 20260902044234 | 61 | 227 | 1.0 | 3.0 | 0.00 | 0.00 | 0.00 | 88 | 999.7 |
| 20260902043727 | 61 | 228 | 1.0 | 4.0 | 0.00 | 0.00 | 0.00 | 88 | 999.5 |
| 20260902043222 | 61 | 213 | 1.0 | 4.0 | 0.00 | 0.00 | 0.00 | 88 | 999.5 |
| 20260902042716 | 61 | 232 | 1.0 | 5.0 | 0.00 | 0.00 | 0.00 | 88 | 999.6 |
| 20260902042209 | 61 | 275 | 1.0 | 5.0 | 0.00 | 0.00 | 0.00 | 88 | 999.4 |
| 20260902041704 | 61 | 302 | 1.0 | 4.0 | 0.00 | 0.00 | 0.00 | 88 | 999.3 |
| 20260902041158 | 61 | 265 | 1.0 | 7.0 | 0.00 | 0.00 | 0.00 | 87 | 999.3 |
| 20260902040145 | 61 | 189 | 2.0 | 5.0 | 0.00 | 0.00 | 0.00 | 87 | 999.1 |
| 20260902035134 | 61 | 177 | 2.0 | 7.0 | 0.00 | 0.00 | 0.00 | 87 | 999.1 |
| 20260902034628 | 61 | 236 | 3.0 | 7.0 | 0.00 | 0.00 | 0.00 | 87 | 999.2 |
| 20260902033109 | 61 | 280 | 3.0 | 11.0 | 0.00 | 0.00 | 0.00 | 87 | 998.9 |
| 20260902032604 | 61 | 194 | 2.0 | 11.0 | 0.00 | 0.00 | 0.00 | 87 | 998.8 |
| 20260902032057 | 61 | 317 | 2.0 | 5.0 | 0.00 | 0.00 | 0.00 | 87 | 998.8 |
| 20260902031046 | 61 | 225 | 3.0 | 9.0 | 0.00 | 0.00 | 0.00 | 87 | 998.8 |
| 20260902030539 | 61 | 227 | 3.0 | 9.0 | 0.00 | 0.00 | 0.00 | 86 | 998.8 |
| 20260902030033 | 62 | 237 | 2.0 | 8.0 | 0.00 | 0.00 | 0.00 | 86 | 998.7 |
| 20260902025528 | 62 | 275 | 2.0 | 8.0 | 0.00 | 0.00 | 0.00 | 86 | 998.7 |
| 20260902025022 | 62 | 231 | 2.0 | 5.0 | 0.00 | 0.00 | 0.00 | 86 | 998.7 |
| 20260902024516 | 62 | 178 | 3.0 | 9.0 | 0.00 | 0.00 | 0.00 | 86 | 998.7 |
| 20260902024010 | 62 | 275 | 2.0 | 9.0 | 0.00 | 0.00 | 0.00 | 86 | 998.7 |
| 20260902022958 | 62 | 233 | 3.0 | 7.0 | 0.00 | 0.00 | 0.00 | 85 | 998.7 |
| 20260902022453 | 62 | 198 | 3.0 | 7.0 | 0.00 | 0.00 | 0.00 | 84 | 998.7 |
| 20260902021946 | 62 | 227 | 3.0 | 8.0 | 0.00 | 0.00 | 0.00 | 84 | 998.7 |
| 20260902021440 | 62 | 175 | 3.0 | 8.0 | 0.00 | 0.00 | 0.00 | 83 | 998.7 |
| 20260902020428 | 62 | 201 | 3.0 | 8.0 | 0.00 | 0.00 | 0.00 | 82 | 998.7 |
| 20260902015922 | 63 | 131 | 3.0 | 9.0 | 0.00 | 0.00 | 0.00 | 82 | 998.7 |
| 20260902015415 | 63 | 230 | 4.0 | 13.0 | 0.00 | 0.00 | 0.00 | 81 | 998.7 |
| 20260902014909 | 63 | 242 | 4.0 | 13.0 | 0.00 | 0.00 | 0.00 | 80 | 998.7 |
| 20260902014404 | 64 | 213 | 4.0 | 9.0 | 0.00 | 0.00 | 0.00 | 80 | 998.5 |
| 20260902013858 | 64 | 227 | 3.0 | 9.0 | 0.00 | 0.00 | 0.00 | 79 | 998.5 |
| 20260902012854 | 64 | 80 | 4.0 | 10.0 | 0.00 | 0.00 | 0.00 | 79 | 998.4 |
| 20260902011855 | 64 | 222 | 4.0 | 10.0 | 0.00 | 0.00 | 0.00 | 79 | 998.5 |
| 20260902011356 | 64 | 236 | 4.0 | 9.0 | 0.00 | 0.00 | 0.00 | 78 | 998.5 |
| 20260902010855 | 65 | 219 | 5.0 | 10.0 | 0.00 | 0.00 | 0.00 | 79 | 998.4 |
| 20260902010355 | 65 | 238 | 5.0 | 11.0 | 0.00 | 0.00 | 0.00 | 77 | 998.4 |
| 20260902005855 | 65 | 234 | 5.0 | 12.0 | 0.00 | 0.00 | 0.00 | 77 | 998.5 |
| 20260902005355 | 65 | 261 | 5.0 | 12.0 | 0.00 | 0.00 | 0.00 | 77 | 998.4 |
| 20260902004855 | 65 | 212 | 5.0 | 11.0 | 0.00 | 0.00 | 0.00 | 76 | 998.4 |
| 20260902004353 | 65 | 212 | 5.0 | 11.0 | 0.00 | 0.00 | 0.00 | 75 | 998.3 |
| 20260902003853 | 65 | 229 | 4.0 | 11.0 | 0.00 | 0.00 | 0.00 | 74 | 998.4 |
| 20260902003354 | 65 | 292 | 5.0 | 13.0 | 0.00 | 0.00 | 0.00 | 76 | 998.3 |
| 20260902002354 | 65 | 206 | 6.0 | 13.0 | 0.00 | 0.00 | 0.00 | 76 | 998.3 |
| 20260902001354 | 65 | 246 | 6.0 | 12.0 | 0.00 | 0.00 | 0.00 | 76 | 998.3 |
| 20260902000854 | 65 | 228 | 5.0 | 12.0 | 0.00 | 0.00 | 0.00 | 75 | 998.3 |
| 20260902000354 | 66 | 235 | 5.0 | 12.0 | 0.00 | 0.00 | 0.00 | 76 | 998.4 |
| 20260901235855 | 67 | 236 | 5.0 | 10.0 | 0.00 | 0.00 | 0.00 | 75 | 998.4 |
| 20260901235354 | 67 | 269 | 5.0 | 11.0 | 0.00 | 0.00 | 0.00 | 75 | 998.5 |
| 20260901234853 | 67 | 211 | 5.0 | 12.0 | 0.00 | 0.00 | 0.00 | 76 | 998.5 |
| 20260901233350 | 65 | 230 | 5.0 | 12.0 | 0.00 | 0.00 | 0.00 | 75 | 998.5 |
| 20260901231848 | 66 | 208 | 5.0 | 13.0 | 0.00 | 0.00 | 0.00 | 73 | 998.9 |
| 20260901231348 | 67 | 227 | 4.0 | 12.0 | 0.00 | 0.00 | 0.00 | 72 | 998.9 |
| 20260901230847 | 67 | 242 | 5.0 | 16.0 | 0.00 | 0.00 | 0.00 | 72 | 998.9 |
| 20260901230347 | 67 | 225 | 5.0 | 16.0 | 0.00 | 0.00 | 0.00 | 71 | 998.9 |
| 20260901225347 | 67 | 232 | 5.0 | 13.0 | 0.00 | 0.00 | 0.00 | 71 | 999.0 |
| 20260901224848 | 68 | 175 | 4.0 | 14.0 | 0.00 | 0.00 | 0.00 | 71 | 999.0 |
| 20260901224341 | 67 | 262 | 5.0 | 15.0 | 0.00 | 0.00 | 0.00 | 71 | 998.9 |
| 20260901223840 | 67 | 260 | 6.0 | 15.0 | 0.00 | 0.00 | 0.00 | 72 | 998.9 |
| 20260901223341 | 67 | 234 | 5.0 | 14.0 | 0.00 | 0.00 | 0.00 | 70 | 999.0 |
| 20260901222841 | 68 | 240 | 5.0 | 10.0 | 0.00 | 0.00 | 0.00 | 70 | 999.0 |
| 20260901221842 | 67 | 271 | 6.0 | 12.0 | 0.00 | 0.00 | 0.00 | 71 | 999.0 |
| 20260901221338 | 68 | 229 | 5.0 | 11.0 | 0.00 | 0.00 | 0.00 | 70 | 999.1 |
| 20260901220840 | 68 | 286 | 5.0 | 11.0 | 0.00 | 0.00 | 0.00 | 71 | 999.1 |
| 20260901220339 | 68 | 257 | 6.0 | 11.0 | 0.00 | 0.00 | 0.00 | 71 | 999.1 |
| 20260901215838 | 68 | 223 | 5.0 | 11.0 | 0.00 | 0.00 | 0.00 | 69 | 999.0 |
| 20260901215340 | 68 | 248 | 5.0 | 13.0 | 0.00 | 0.00 | 0.00 | 73 | 998.9 |
| 20260901214338 | 67 | 178 | 6.0 | 14.0 | 0.00 | 0.00 | 0.00 | 72 | 999.0 |
| 20260901213838 | 68 | 198 | 5.0 | 14.0 | 0.00 | 0.00 | 0.00 | 70 | 999.1 |
| 20260901213340 | 68 | 175 | 6.0 | 12.0 | 0.00 | 0.00 | 0.00 | 69 | 999.0 |
| 20260901212836 | 68 | 211 | 6.0 | 12.0 | 0.00 | 0.00 | 0.00 | 66 | 999.0 |
| 20260901211835 | 69 | 205 | 5.0 | 12.0 | 0.00 | 0.00 | 0.00 | 65 | 998.9 |
| 20260901211336 | 69 | 221 | 5.0 | 12.0 | 0.00 | 0.00 | 0.00 | 66 | 999.0 |
| 20260901210835 | 68 | 243 | 6.0 | 12.0 | 0.00 | 0.00 | 0.00 | 67 | 998.9 |
| 20260901205835 | 69 | 253 | 6.0 | 11.0 | 0.00 | 0.00 | 0.00 | 67 | 998.9 |
| 20260901205334 | 69 | 240 | 5.0 | 12.0 | 0.00 | 0.00 | 0.00 | 70 | 999.0 |
| 20260901204836 | 69 | 271 | 6.0 | 12.0 | 0.00 | 0.00 | 0.00 | 70 | 999.0 |
| 20260901204331 | 68 | 201 | 6.0 | 13.0 | 0.00 | 0.00 | 0.00 | 69 | 999.1 |
| 20260901203331 | 69 | 270 | 5.0 | 12.0 | 0.00 | 0.00 | 0.00 | 70 | 999.1 |
| 20260901202831 | 69 | 238 | 5.0 | 12.0 | 0.00 | 0.00 | 0.00 | 71 | 999.1 |
| 20260901202331 | 68 | 209 | 5.0 | 12.0 | 0.00 | 0.00 | 0.00 | 70 | 999.1 |
| 20260901201830 | 68 | 244 | 5.0 | 12.0 | 0.00 | 0.00 | 0.00 | 72 | 999.2 |
| 20260901201330 | 68 | 210 | 6.0 | 15.0 | 0.00 | 0.00 | 0.00 | 73 | 999.2 |
| 20260901200832 | 68 | 261 | 6.0 | 15.0 | 0.00 | 0.00 | 0.00 | 72 | 999.2 |
| 20260901195826 | 68 | 287 | 5.0 | 12.0 | 0.00 | 0.00 | 0.00 | 71 | 999.2 |
| 20260901194826 | 67 | 241 | 5.0 | 10.0 | 0.00 | 0.00 | 0.00 | 73 | 999.3 |
| 20260901194326 | 67 | 230 | 5.0 | 11.0 | 0.00 | 0.00 | 0.00 | 72 | 999.3 |
| 20260901193827 | 67 | 201 | 4.0 | 11.0 | 0.00 | 0.00 | 0.00 | 73 | 999.3 |
| 20260901193328 | 67 | 215 | 4.0 | 11.0 | 0.00 | 0.00 | 0.00 | 73 | 999.4 |
| 20260901192826 | 67 | 263 | 5.0 | 11.0 | 0.00 | 0.00 | 0.00 | 72 | 999.4 |
| 20260901191828 | 66 | 244 | 5.0 | 10.0 | 0.00 | 0.00 | 0.00 | 74 | 999.4 |
| 20260901191324 | 67 | 233 | 4.0 | 10.0 | 0.00 | 0.00 | 0.00 | 75 | 999.3 |
| 20260901190826 | 67 | 202 | 5.0 | 10.0 | 0.00 | 0.00 | 0.00 | 74 | 999.3 |
| 20260901190324 | 67 | 273 | 5.0 | 11.0 | 0.00 | 0.00 | 0.00 | 72 | 999.3 |
| 20260901185824 | 67 | 284 | 5.0 | 11.0 | 0.00 | 0.00 | 0.00 | 73 | 999.3 |
| 20260901185320 | 66 | 245 | 5.0 | 12.0 | 0.00 | 0.00 | 0.00 | 74 | 999.2 |
| 20260901184818 | 66 | 223 | 4.0 | 12.0 | 0.00 | 0.00 | 0.00 | 74 | 999.2 |
| 20260901184319 | 65 | 188 | 4.0 | 11.0 | 0.00 | 0.00 | 0.00 | 76 | 999.2 |
| 20260901183819 | 65 | 270 | 4.0 | 11.0 | 0.00 | 0.00 | 0.00 | 76 | 999.1 |
| 20260901183319 | 66 | 287 | 4.0 | 9.0 | 0.00 | 0.00 | 0.00 | 76 | 999.2 |
| 20260901182318 | 66 | 231 | 4.0 | 12.0 | 0.00 | 0.00 | 0.00 | 77 | 999.2 |
| 20260901180313 | 66 | 246 | 4.0 | 12.0 | 0.00 | 0.00 | 0.00 | 73 | 999.1 |
| 20260901175807 | 66 | 255 | 5.0 | 12.0 | 0.00 | 0.00 | 0.00 | 70 | 999.0 |
| 20260901175305 | 65 | 238 | 5.0 | 10.0 | 0.00 | 0.00 | 0.00 | 72 | 999.1 |
| 20260901174755 | 65 | 232 | 4.0 | 10.0 | 0.00 | 0.00 | 0.00 | 75 | 998.9 |
| 20260901174248 | 65 | 205 | 4.0 | 8.0 | 0.00 | 0.00 | 0.00 | 75 | 998.9 |
| 20260901173743 | 65 | 248 | 3.0 | 6.0 | 0.00 | 0.00 | 0.00 | 79 | 998.9 |
| 20260901173238 | 64 | 226 | 3.0 | 7.0 | 0.00 | 0.00 | 0.00 | 81 | 998.8 |
| 20260901172738 | 64 | 244 | 2.0 | 7.0 | 0.00 | 0.00 | 0.00 | 81 | 998.8 |
| 20260901171739 | 63 | 200 | 3.0 | 7.0 | 0.00 | 0.00 | 0.00 | 84 | 998.9 |
| 20260901171238 | 63 | 227 | 3.0 | 7.0 | 0.00 | 0.00 | 0.00 | 85 | 998.8 |
| 20260901170738 | 63 | 217 | 2.0 | 8.0 | 0.00 | 0.00 | 0.00 | 85 | 998.8 |
| 20260901170239 | 63 | 236 | 2.0 | 8.0 | 0.00 | 0.00 | 0.00 | 85 | 998.7 |
| 20260901165738 | 62 | 233 | 3.0 | 7.0 | 0.00 | 0.00 | 0.00 | 85 | 998.5 |
| 20260901164736 | 62 | 242 | 3.0 | 8.0 | 0.00 | 0.00 | 0.00 | 87 | 998.5 |
| 20260901164236 | 62 | 223 | 3.0 | 8.0 | 0.00 | 0.00 | 0.00 | 87 | 998.4 |
| 20260901163737 | 62 | 200 | 3.0 | 7.0 | 0.00 | 0.00 | 0.00 | 88 | 998.5 |